Weather History for Bay City, TX

Change the Weather History Date:

Wednesday, November 21, 2012

  Actual Average (KLBX) Record (KLBX)
Temperature  
Mean Temperature 66 °F -  
Max Temperature 84 °F 68 °F 81 °F (2003)
Min Temperature 49 °F 51 °F 30 °F (2006)
Cooling Degree Days 2    
Growing Degree Days 16 (Base 50)    
Moisture  
Dew Point 56 °F    
Average Humidity 80    
Maximum Humidity 100    
Minimum Humidity 29    
Precipitation  
Precipitation 0.00 in - - ()
Sea Level Pressure  
Sea Level Pressure 30.20 in    
Wind  
Wind Speed 2 mph (ESE)    
Max Wind Speed 12 mph    
Max Gust Speed -    
Visibility 6 miles    
Events Fog    
Averages and records for this station are not official NWS values.
T = Trace of Precipitation, MM = Missing Value Source: NWS Daily Summary

Daily Weather History Graph

Daily Weather History Graph

Search for Another Location

Airport:

Trip Planner

Search our weather history database for the weather conditions in past years. The results will help you decide how hot, cold, wet, or windy it might be!

Date:

Astronomy

Nov. 21, 2012 Rise Set
Actual Time 6:51 AM CST 5:26 PM CST
Civil Twilight 6:26 AM CST 5:52 PM CST
Nautical Twilight 5:57 AM CST 6:20 PM CST
Astronomical Twilight 5:29 AM CST 6:49 PM CST
Moon 1:17 PM CST (11/21) 12:41 AM CST (11/21)
Length of Visible Light 11h 25m
Length of Day
10h 34m
First Quarter, 62% of the Moon is Illuminated
Nov 21
First Quarter
Nov 28
Full
Dec 6
Last Quarter
Dec 13
New
Dec 19
First Quarter

Hourly Weather History & Observations

Time (CST) Temp. Heat Index Dew Point Humidity Pressure Visibility Wind Dir Wind Speed Gust Speed Precip Events Conditions
12:15 AM 57.2 °F - 57.2 °F 100% 30.19 in 0.2 mi Calm Calm - N/A Fog Fog
12:35 AM 55.9 °F - 55.9 °F 100% 30.20 in 0.2 mi Calm Calm - N/A Fog Fog
12:55 AM 56.5 °F - 56.5 °F 100% 30.19 in 0.2 mi Calm Calm - N/A Fog Fog
1:15 AM 55.8 °F - 55.8 °F 100% 30.19 in 0.5 mi Calm Calm - N/A Fog Fog
1:35 AM 54.1 °F - 54.1 °F 100% 30.19 in 0.5 mi Calm Calm - N/A Fog Fog
1:55 AM 53.4 °F - 53.4 °F 100% 30.19 in 0.2 mi Calm Calm - N/A Fog Fog
2:15 AM 54.3 °F - 54.3 °F 100% 30.19 in 0.5 mi Calm Calm - N/A Fog Fog
2:35 AM 54.1 °F - 54.1 °F 100% 30.19 in 0.2 mi Calm Calm - N/A Fog Fog
2:55 AM 54.0 °F - 54.0 °F 100% 30.19 in 0.2 mi Calm Calm - N/A Fog Fog
3:15 AM 52.9 °F - 52.9 °F 100% 30.19 in 0.2 mi Calm Calm - N/A Fog Fog
3:35 AM 52.5 °F - 52.5 °F 100% 30.19 in 0.8 mi Calm Calm - N/A   Scattered Clouds
3:55 AM 52.2 °F - 52.2 °F 100% 30.19 in 1.5 mi Calm Calm - N/A   Mist
4:15 AM 52.0 °F - 52.0 °F 100% 30.19 in 0.8 mi Calm Calm - N/A   Mist
4:35 AM 52.3 °F - 52.3 °F 100% 30.19 in 0.2 mi Calm Calm - N/A Fog Fog
4:55 AM 51.6 °F - 51.6 °F 100% 30.19 in 0.2 mi Calm Calm - N/A Fog Fog
5:15 AM 50.7 °F - 50.7 °F 100% 30.19 in 0.5 mi Calm Calm - N/A Fog Fog
5:35 AM 50.0 °F - 50.0 °F 100% 30.20 in 0.2 mi Calm Calm - N/A Fog Fog
5:55 AM 50.4 °F - 50.4 °F 100% 30.20 in 0.2 mi Calm Calm - N/A Fog Fog
6:15 AM 50.0 °F - 50.0 °F 100% 30.21 in 2.5 mi Calm Calm - N/A   Clear
6:35 AM 50.0 °F - 50.0 °F 100% 30.21 in 0.5 mi Calm Calm - N/A Fog Fog
6:55 AM 49.3 °F - 49.3 °F 100% 30.22 in 0.2 mi Calm Calm - N/A Fog Fog
7:15 AM 49.8 °F - 49.8 °F 100% 30.24 in 0.2 mi Calm Calm - N/A Fog Fog
7:35 AM 50.5 °F - 50.5 °F 100% 30.24 in 0.2 mi Calm Calm - N/A Fog Fog
7:55 AM 53.2 °F - 53.2 °F 100% 30.24 in 0.2 mi Calm Calm - N/A Fog Fog
8:15 AM 56.5 °F - 56.5 °F 100% 30.25 in 0.8 mi Calm Calm - N/A   Mostly Cloudy
8:35 AM 59.7 °F - 59.7 °F 100% 30.26 in 3.0 mi Calm Calm - N/A   Scattered Clouds
8:55 AM 61.7 °F - 61.7 °F 100% 30.27 in 7.0 mi Calm Calm - N/A   Clear
9:15 AM 63.1 °F - 63.1 °F 100% 30.27 in 10.0 mi Calm Calm - N/A   Clear
9:35 AM 64.4 °F - 64.4 °F 100% 30.27 in 10.0 mi NNE 3.5 mph - N/A   Clear
9:55 AM 67.8 °F - 65.3 °F 92% 30.27 in 10.0 mi NNE 3.5 mph - N/A   Clear
10:15 AM 72.9 °F - 61.3 °F 67% 30.27 in 10.0 mi NNE 4.6 mph - N/A   Clear
10:35 AM 75.2 °F - 59.0 °F 57% 30.27 in 10.0 mi NE 3.5 mph - N/A   Clear
10:55 AM 77.9 °F - 59.4 °F 53% 30.26 in 10.0 mi NNE 5.8 mph - N/A   Clear
11:15 AM 79.7 °F - 58.5 °F 48% 30.25 in 10.0 mi NNE 3.5 mph - N/A   Clear
11:35 AM 81.0 °F 81.2 °F 58.3 °F 46% 30.24 in 10.0 mi North 5.8 mph - N/A   Clear
11:55 AM 80.8 °F 81.0 °F 57.7 °F 45% 30.23 in 10.0 mi NNE 4.6 mph - N/A   Clear
12:15 PM 81.3 °F 81.3 °F 57.4 °F 44% 30.22 in 10.0 mi NE 6.9 mph - N/A   Clear
12:35 PM 82.0 °F 81.5 °F 55.4 °F 40% 30.21 in 10.0 mi North 3.5 mph - N/A   Clear
12:55 PM 82.9 °F 81.9 °F 54.5 °F 37% 30.20 in 10.0 mi NNE 5.8 mph - N/A   Clear
1:15 PM 83.3 °F - 52.9 °F 35% 30.19 in 10.0 mi NNE 6.9 mph - N/A   Clear
1:35 PM 83.7 °F 82.4 °F 53.8 °F 36% 30.18 in 10.0 mi NNE 5.8 mph - N/A   Clear
1:55 PM 84.0 °F 82.5 °F 53.1 °F 34% 30.17 in 10.0 mi ENE 4.6 mph - N/A   Scattered Clouds
2:15 PM 84.2 °F - 52.2 °F 33% 30.17 in 10.0 mi SE 5.8 mph - N/A   Scattered Clouds
2:35 PM 84.0 °F - 51.1 °F 32% 30.16 in 10.0 mi SE 8.1 mph - N/A   Scattered Clouds
2:55 PM 83.5 °F - 50.7 °F 32% 30.16 in 10.0 mi SSE 4.6 mph - N/A   Scattered Clouds
3:15 PM 83.8 °F - 48.2 °F 29% 30.16 in 10.0 mi Calm Calm - N/A   Clear
3:35 PM 81.7 °F - 52.9 °F 37% 30.16 in 10.0 mi SSE 11.5 mph - N/A   Clear
3:55 PM 78.8 °F - 57.6 °F 48% 30.16 in 10.0 mi South 10.4 mph - N/A   Clear
4:15 PM 78.3 °F - 56.8 °F 48% 30.16 in 10.0 mi SSE 9.2 mph - N/A   Clear
4:35 PM 77.7 °F - 56.3 °F 48% 30.16 in 10.0 mi SSE 8.1 mph - N/A   Clear
4:55 PM 76.6 °F - 55.8 °F 48% 30.16 in 10.0 mi SSE 6.9 mph - N/A   Clear
5:15 PM 74.8 °F - 55.6 °F 51% 30.16 in 10.0 mi SSE 4.6 mph - N/A   Clear
5:35 PM 71.6 °F - 57.6 °F 61% 30.17 in 10.0 mi South 4.6 mph - N/A   Clear
5:55 PM 68.7 °F - 58.6 °F 70% 30.17 in 10.0 mi South 4.6 mph - N/A   Clear
6:15 PM 67.5 °F - 58.6 °F 73% 30.18 in 10.0 mi South 3.5 mph - N/A   Clear
6:35 PM 66.4 °F - 58.8 °F 77% 30.18 in 10.0 mi South 4.6 mph - N/A   Clear
6:55 PM 65.8 °F - 59.0 °F 79% 30.19 in 10.0 mi Calm Calm - N/A   Clear
7:15 PM 65.1 °F - 59.0 °F 81% 30.19 in 10.0 mi South 4.6 mph - N/A   Clear
7:35 PM 64.8 °F - 59.0 °F 82% 30.19 in 10.0 mi South 4.6 mph - N/A   Clear
7:55 PM 63.9 °F - 59.0 °F 84% 30.19 in 10.0 mi SSW 4.6 mph - N/A   Clear
8:15 PM 62.8 °F - 58.8 °F 87% 30.20 in 10.0 mi Calm Calm - N/A   Clear
8:35 PM 61.3 °F - 59.7 °F 94% 30.20 in 10.0 mi Calm Calm - N/A   Clear
8:55 PM 61.0 °F - 61.0 °F 100% 30.20 in 10.0 mi SSW 3.5 mph - N/A   Clear
9:15 PM 59.5 °F - 59.5 °F 100% 30.20 in 7.0 mi Calm Calm - N/A   Clear
9:35 PM 59.0 °F - 59.0 °F 100% 30.20 in 5.0 mi Calm Calm - N/A   Clear
9:55 PM 58.3 °F - 58.3 °F 100% 30.20 in 2.0 mi Calm Calm - N/A   Clear
10:15 PM 57.4 °F - 57.4 °F 100% 30.19 in 1.0 mi WSW 3.5 mph - N/A   Mist
10:35 PM 56.8 °F - 56.8 °F 100% 30.20 in 2.0 mi Calm Calm - N/A   Clear
10:55 PM 57.4 °F - 57.4 °F 100% 30.19 in 1.5 mi Calm Calm - N/A   Mist
11:15 PM 56.1 °F - 56.1 °F 100% 30.19 in 0.2 mi Calm Calm - N/A Fog Fog
11:35 PM 55.2 °F - 55.2 °F 100% 30.18 in 0.2 mi Calm Calm - N/A Fog Fog
11:55 PM 53.4 °F - 53.4 °F 100% 30.17 in 0.2 mi Calm Calm - N/A Fog Fog